Lid_Strength_Index
5 2 2 1 1 1 1 1 1 1 2 2 2 3 2 2 2 2 3 2 3 3 2 3 2 2 2 2 2 2 3 2 4 9 10 10 11 11 11 10 10 9 9
7 6 5 1 1 1 1 1 1 2 1 2 1 2 2 2 2 2 2 3 2 3 2 3 2 3 2 2 2 3 3 3 3 7 11 12 12 11 12 11 11 10 9
8 8 7 6 3 2 2 1 1 1 2 1 1 2 1 1 2 2 2 2 2 2 2 3 3 3 3 3 3 3 3 6 5 9 12 12 12 12 13 12 11 11 10
8 8 8 7 6 5 2 2 2 2 2 2 2 2 2 2 2 2 2 2 2 2 3 3 3 3 3 4 4 4 7 7 8 10 13 13 13 14 13 13 13 13 12
9 9 8 8 7 6 5 3 2 2 2 2 2 2 2 2 2 3 3 3 3 3 4 3 4 5 8 6 5 6 7 10 11 13 14 14 14 15 13 13 14 13 13
10 10 9 8 8 7 6 5 4 3 2 3 3 2 2 3 6 8 5 3 4 4 6 7 8 12 11 10 9 9 7 9 12 12 14 14 14 14 13 13 14 13 13
11 11 10 9 9 8 8 7 7 5 4 3 3 3 4 4 9 9 9 3 5 5 6 9 12 12 12 11 11 11 11 9 8 10 12 12 13 13 13 15 14 14 16
12 12 11 11 11 10 9 8 7 6 5 5 4 4 4 5 10 10 10 4 6 7 8 9 10 12 12 12 13 14 14 13 12 12 11 12 12 13 13 14 15 15 16
12 13 12 13 13 11 10 9 8 7 8 8 9 8 8 8 10 10 10 9 11 11 10 10 10 12 14 13 14 14 15 15 12 12 12 12 12 13 15 16 20 19 19
11 13 13 12 13 12 11 9 8 9 9 10 11 11 11 10 11 11 10 12 14 14 14 13 13 13 13 12 13 14 15 15 15 15 15 15 15 14 15 16 17 20 21
12 12 12 11 11 11 11 11 10 10 10 11 12 12 12 12 12 11 10 11 12 13 14 13 14 13 12 11 11 13 14 15 15 17 18 18 18 18 18 18 17 18 22
12 12 11 11 11 11 11 11 11 10 11 11 12 13 14 15 13 11 10 10 11 13 14 14 14 12 11 12 13 13 14 15 17 18 18 19 19 19 19 19 18 18 19
13 12 12 11 10 10 11 11 11 11 11 12 12 12 14 14 13 11 11 11 12 13 13 13 12 12 12 13 13 13 15 16 18 18 19 19 19 19 20 22 22 22 22
14 13 12 12 11 10 10 10 11 10 11 12 12 12 13 14 13 13 13 12 13 13 13 13 13 13 13 14 14 15 16 16 17 18 18 19 20 22 23 23 24 25 26
16 13 13 12 11 11 10 10 10 10 10 11 12 12 13 13 13 12 12 14 13 13 14 14 14 15 15 15 16 16 16 17 17 19 20 21 21 21 24 25 26 30 29
17 14 14 13 12 11 10 10 9 9 9 10 10 10 13 11 11 12 12 12 12 13 14 15 15 15 16 17 17 17 17 17 18 19 20 20 21 22 24 26 27 30 29
18 16 13 13 12 12 11 11 11 10 9 10 10 10 11 11 12 12 11 12 12 12 14 15 15 16 16 16 17 17 18 18 20 20 21 21 22 23 24 25 26 27 30
19 17 14 13 13 12 11 10 10 11 11 11 11 10 10 11 12 11 12 12 14 13 14 15 15 15 16 17 17 18 19 21 21 22 22 23 23 24 25 26 27 30 31
21 17 14 14 14 13 12 11 10 10 11 11 13 12 12 11 11 11 12 13 14 14 15 15 15 15 17 17 18 19 20 21 22 23 23 24 24 25 26 27 27 28 31
20 20 15 16 16 15 12 11 11 11 11 12 13 12 12 13 13 13 13 13 14 14 14 15 15 15 16 18 19 20 21 23 24 24 24 24 25 25 27 27 28 29 30
22 19 19 17 16 15 13 12 10 11 11 11 12 12 12 12 13 12 13 13 13 14 14 14 15 16 17 19 20 21 22 23 24 24 25 25 26 27 27 27 28 29 31
23 22 19 19 18 17 15 13 11 10 11 11 12 12 11 12 13 13 13 13 13 13 13 14 16 17 18 19 20 21 22 23 24 25 25 26 26 27 28 28 29 31 33
21 22 22 21 20 18 17 14 12 10 9 11 11 12 13 13 13 13 12 13 13 14 15 16 18 19 19 20 20 20 22 23 23 24 26 26 27 27 28 29 30 31 34
22 23 23 23 22 21 19 17 14 11 9 9 11 11 12 12 13 13 13 13 15 17 17 18 18 20 21 21 21 21 21 23 23 24 25 26 27 28 29 29 30 33 32
24 24 23 23 22 22 20 18 15 12 10 9 10 11 12 12 12 13 15 17 18 19 19 20 20 21 22 22 23 24 23 24 25 26 26 26 27 28 29 30 33 33 34
25 24 23 22 21 21 20 19 16 13 11 9 9 10 12 13 17 19 20 21 21 22 22 22 22 23 24 25 24 24 25 25 27 26 26 27 28 29 30 31 32 32 34